JCSAT-12 (JCSAT-RA)

Last updated on Fri Dec 19 2025 00:02:49 GMT+0000 (Coordinated Universal Time)

1 35755U 09044A 25352.58012810 -.00000303 00000+0 00000+0 0 9999 2 35755 0.0182 350.1639 0001658 291.3796 146.7945 1.00270879 59792
UTC large
Height (km)
Speed (km/s)
/
Latitude / Longitude
Inclination (degrees)
Orbital Period (minutes)
Azimuth
Elevation
Range (km)
Doppler Factor

Next 0 passes for location: London (51.5072 / 0.1276)

Sorry there are no passes over London.